Location: Ch�tillon
(48.8024°N, 2.2935°E)
Time: 18:58:53
(UTC+00:00)

RS-15 - Pass Details

Date: 05 July 2022
Orbit: 1881 x 2163 km, 64.8° (Epoch: 11 August)

Event Time Altitude Azimuth Distance (km) Brightness Sun altitude
Rises 20:41:03 0° 311° (NW) 5,685 13.1 -6.4°
Reaches altitude 10° 20:44:43 10° 316° (NW) 4,689 11.9 -6.8°
Maximum altitude 20:56:50 54° 33° (NNE) 2,510 8.7 -8.1°
Drops below altitude 10° 21:08:39 10° 109° (ESE) 4,589 9.5 -9.4°
Enters shadow 21:10:44 - 113° (ESE) 5,160 9.7 -9.6°
